Volver al catálogo

STARLINK-4343

ActivoComunicacionesSSO
NORAD 53050·PAYLOAD·🇺🇸 United States

Lanzado Jul 11, 2022 desde Vandenberg Space Force Base

Loading…

Próximos Pases (próximas 24 horas)

TLE

ActualizadoSource: CelesTrak SupGP

Época: Sep 14, 2026, 20:37 UTC

1 53050C 22077H   26257.85951389  .00069561  00000+0  21594-2 0  2577
2 53050  97.2857  73.7009 0001381  86.1946   6.5802 15.33403413    15

Sigue STARLINK-4343 en tiempo real con AllMySat

Download on the App Store